Flag for U.S.A. Weather past 2 weeks in Lakewood, New Jersey, U.S.A.

Now
25 °F

Sunny.


Feels Like: 25 °F
Forecast: 11 / 26 °F
Wind: No wind

Location: Belmar-Farmdale

Current Time: Mar 6, 2015 at 4:48:46 PM

Latest Report: Mar 6, 2015 at 4:15 PM


Visibility: 10 mi

Pressure: 30.45 "Hg

Humidity: 46%

Dew point: 7 °F

Location of LakewoodLocation

Historic Weather in Lakewood — Graph

°F

Lakewood temperature yesterday

Maximum temperature yesterday: 39 °F (at 12:15 AM)
Minimum temperature yesterday: 19 °F (at 6:15 PM)
Average temperature yesterday: 28 °F

Past Weeks' High & Low Weather Summary

 TemperatureHumidityPressure
High45 °F (Mar 4, 1:15 PM)87% (Mar 4, 12:55 AM)30.81 "Hg (Mar 4, 12:55 AM)
Low0 °F (Feb 20, 6:55 AM)28% (Feb 23, 4:35 PM)29.75 "Hg (Feb 25, 3:35 AM)
Average25 °F58%30.23 "Hg
* Reported Feb 19 3:15 PM — Mar 6 3:35 PM, Lakewood, Weather by CustomWeather, © 2015

Note: Actual official high and low records may vary slightly from our data, if they occured in-between our weather recording intervals... More about our weather records

Advertising

Lakewood weather history for previous 24 hours

 ConditionsComfort  
Time TempWeatherWind HumidityBarometerVisibility
3:35 PM
Fri, Mar 6
27 °FSunny.5 mph39%30.45 "Hg10 mi
3:15 PM25 °FSunny.No wind46%30.45 "Hg10 mi
2:55 PM25 °FSunny.No wind39%30.46 "Hg10 mi
2:35 PM25 °FSunny.No wind42%30.46 "Hg10 mi
2:15 PM25 °FSunny.No wind42%30.47 "Hg10 mi
1:55 PM23 °FSunny.3 mph42%30.47 "Hg10 mi
1:35 PM23 °FSunny.7 mph46%30.48 "Hg10 mi
1:15 PM23 °FSunny.8 mph50%30.49 "Hg10 mi
12:55 PM23 °FSunny.No wind42%30.51 "Hg10 mi
12:35 PM21 °FSunny.6 mph54%30.52 "Hg10 mi
12:15 PM21 °FSunny.3 mph45%30.52 "Hg10 mi
11:55 AM21 °FSunny.No wind54%30.52 "Hg10 mi
11:15 AM21 °FSunny.5 mph54%30.53 "Hg10 mi
10:55 AM19 °FSunny.No wind53%30.54 "Hg10 mi
10:35 AM19 °FPassing clouds.8 mph53%30.54 "Hg10 mi
10:15 AM19 °FScattered clouds.6 mph53%30.54 "Hg10 mi
9:55 AM18 °FPassing clouds.8 mph58%30.54 "Hg10 mi
9:35 AM18 °FSunny.6 mph53%30.54 "Hg10 mi
9:15 AM16 °FSunny.9 mph57%30.53 "Hg10 mi
8:55 AM16 °FSunny.7 mph53%30.54 "Hg10 mi
8:35 AM14 °FSunny.9 mph57%30.53 "Hg10 mi
8:15 AM12 °FSunny.10 mph62%30.53 "Hg10 mi
7:55 AM10 °FSunny.9 mph61%30.52 "Hg10 mi
7:35 AM9 °FSunny.9 mph66%30.52 "Hg10 mi
7:15 AM9 °FSunny.6 mph61%30.52 "Hg10 mi
6:55 AM7 °FSunny.7 mph66%30.51 "Hg10 mi
6:35 AM7 °FSunny.6 mph66%30.50 "Hg10 mi
6:15 AM9 °FClear.7 mph61%30.49 "Hg10 mi
5:55 AM7 °FClear.7 mph66%30.49 "Hg10 mi
5:35 AM7 °FClear.8 mph66%30.47 "Hg10 mi
5:15 AM9 °FClear.6 mph61%30.47 "Hg10 mi
4:55 AM9 °FClear.6 mph66%30.46 "Hg10 mi
4:35 AM9 °FClear.8 mph61%30.46 "Hg10 mi
4:15 AM9 °FClear.7 mph61%30.44 "Hg10 mi
3:55 AM10 °FClear.9 mph61%30.43 "Hg10 mi
3:35 AM10 °FClear.8 mph61%30.43 "Hg10 mi
3:15 AM12 °FClear.10 mph57%30.41 "Hg10 mi
2:55 AM12 °FClear.9 mph62%30.41 "Hg10 mi
2:35 AM12 °FClear.9 mph57%30.40 "Hg10 mi
2:15 AM14 °FClear.10 mph57%30.40 "Hg10 mi
1:55 AM16 °FClear.10 mph53%30.40 "Hg10 mi
1:35 AM16 °FClear.15 mph53%30.39 "Hg10 mi
1:15 AM18 °FClear.14 mph49%30.39 "Hg10 mi
12:55 AM18 °FClear.20 mph58%30.37 "Hg10 mi
12:35 AM18 °FClear.14 mph62%30.36 "Hg10 mi
12:15 AM19 °FClear.15 mph58%30.36 "Hg10 mi
11:55 PM
Thu, Mar 5
19 °FClear.16 mph58%30.36 "Hg10 mi
11:35 PM19 °FClear.16 mph63%30.35 "Hg10 mi
11:15 PM19 °FClear.15 mph63%30.35 "Hg10 mi
10:55 PM21 °FPassing clouds.13 mph63%30.34 "Hg10 mi
10:35 PM21 °FPassing clouds.12 mph63%30.33 "Hg10 mi
9:55 PM21 °FMostly cloudy.12 mph63%30.32 "Hg10 mi
9:35 PM19 °FOvercast.10 mph68%30.31 "Hg10 mi
9:15 PM19 °FMostly cloudy.9 mph68%30.30 "Hg10 mi
8:55 PM19 °FOvercast.12 mph68%30.29 "Hg10 mi
8:35 PM19 °FOvercast.12 mph68%30.29 "Hg10 mi
8:15 PM19 °FOvercast.13 mph68%30.27 "Hg10 mi
7:55 PM19 °FMostly cloudy.14 mph68%30.26 "Hg10 mi
7:35 PM19 °FOvercast.13 mph73%30.25 "Hg10 mi
6:55 PM19 °FMostly cloudy.14 mph73%30.24 "Hg10 mi
6:35 PM19 °FMostly cloudy.15 mph73%30.23 "Hg5 mi
6:15 PM19 °FPartly cloudy.15 mph73%30.23 "Hg5 mi
5:55 PM21 °FMostly cloudy.18 mph68%30.24 "Hg2 mi
5:35 PM21 °FMostly cloudy.10 mph74%30.18 "Hg2 mi
4:55 PM21 °FOvercast.10 mph68%30.20 "Hg2 mi
4:35 PM21 °FOvercast.12 mph74%30.18 "Hg1 mi
Weather by CustomWeather, © 2015

See weather overviewHow to use our weather pages